Hourly Data Report for August 30, 2021

WINNIPEG THE FORKS
MANITOBA
Current Station Operator: ECCC - MSC

49°53'18.008" N
97°07'46.007" W
230.00 m
5023262
71579
XWN

Download Data

Hourly Data (August 2021)
Hourly Data Report for August 30, 2021
TIME
LST
Temp Definition
°C
Dew Point Definition
°C
Rel Hum Definition
%
Precip. Amount Definition
mm

Wind Dir Definition
10's deg

Wind Spd Definition
km/h
Visibility Definition
km
Stn Press Definition
kPa
Hmdx Definition


Wind Chill Definition


Weather Definition


00:00 16.1 11.7 75 0.0 26 5   98.69     LegendNANA
01:00 15.9 11.5 75 0.0 30 3   98.70     LegendNANA
02:00 15.7 11.4 76 0.0 27 4   98.73     LegendNANA
03:00 15.0 11.3 79 0.0 27 2   98.73     LegendNANA
04:00 15.0 11.3 79 0.0 27 2   98.74     LegendNANA
05:00 13.1 11.0 87 0.0 0 1   98.78     LegendNANA
06:00 13.0 11.1 88 0.0   0   98.80     LegendNANA
07:00 14.1 12.2 88 0.0   0   98.85     LegendNANA
08:00 16.1 12.8 81 0.0 36 2   98.86     LegendNANA
09:00 17.7 12.7 73 0.0 33 2   98.86     LegendNANA
10:00 19.4 13.7 70 0.0 35 2   98.84     LegendNANA
11:00 20.6 13.4 63 0.0 3 5   98.81     LegendNANA
12:00 21.4 13.1 59 0.0 2 4   98.78     LegendNANA
13:00 21.9 11.6 52 0.0 36 4   98.75     LegendNANA
14:00 22.3 11.2 49 0.0 4 4   98.72     LegendNANA
15:00 22.1 11.4 51 0.0 4 5   98.69     LegendNANA
16:00 22.8 11.3 48 0.0 6 5   98.67 25   LegendNANA
17:00 22.5 10.9 48 0.0 3 5   98.64     LegendNANA
18:00 21.9 11.4 51 0.0 4 4   98.61     LegendNANA
19:00 20.4 11.3 56 0.0 5 5   98.61     LegendNANA
20:00 19.0 10.9 59 0.0 5 4   98.65     LegendNANA
21:00 17.2 11.2 68 0.0 5 1   98.66     LegendNANA
22:00 16.4 12.1 75 0.0 8 1   98.68     LegendNANA
23:00 15.6 12.2 80 0.0   0   98.66     LegendNANA

Notes on Data Quality.

Legend

  • E = Estimated
  • M = Missing
  • NA = Not Available*
  • [empty] = Indicates an unobserved value
Date modified: